GW3020 Weather Reports


time (UTC)temp
C
wind
direction
speed
KPH
gust
KPH
rain 1hr
cm
rain 24hr
cm
rain mn
cm
humidity
%
barometer
mb
20260503032701 3 175 1.6 1.6 0.00 0.00 0.00 69 1014.5
20260503032200 3 231 0.0 0.0 0.00 0.00 0.00 71 1014.2
20260503031656 3 211 0.0 1.6 0.00 0.00 0.00 72 1014.2
20260503031155 4 240 0.0 1.6 0.00 0.00 0.00 71 1014.2
20260503030650 3 208 0.0 0.0 0.00 0.00 0.00 71 1014.3
20260503030147 4 214 0.0 1.6 0.00 0.00 0.00 71 1014.2
20260503025644 3 232 0.0 0.0 0.00 0.00 0.00 72 1014.3
20260503025142 3 235 0.0 0.0 0.00 0.00 0.00 72 1014.3
20260503024638 4 243 0.0 0.0 0.00 0.00 0.00 71 1014.3
20260503024136 4 231 0.0 0.0 0.00 0.00 0.00 70 1014.1
20260503023632 4 218 0.0 0.0 0.00 0.00 0.00 68 1014.3
20260503023130 4 216 0.0 1.6 0.00 0.00 0.00 68 1014.1
20260503022625 4 238 0.0 0.0 0.00 0.00 0.00 68 1014.2
20260503022120 5 246 0.0 1.6 0.00 0.00 0.00 67 1014.4
20260503021617 5 258 0.0 1.6 0.00 0.00 0.00 66 1014.2
20260503021114 5 210 0.0 0.0 0.00 0.00 0.00 64 1014.3
20260503020611 5 226 0.0 0.0 0.00 0.00 0.00 66 1014.1
20260503020108 5 224 0.0 0.0 0.00 0.00 0.00 66 1014.4
20260503015605 5 244 0.0 1.6 0.00 0.00 0.00 65 1014.3
20260503015102 5 224 0.0 1.6 0.00 0.00 0.00 64 1013.8
20260503014558 5 231 0.0 1.6 0.00 0.00 0.00 62 1013.8
20260503014056 5 235 0.0 0.0 0.00 0.00 0.00 62 1013.8
20260503013553 5 247 1.6 1.6 0.00 0.00 0.00 60 1013.8
20260503013051 6 241 0.0 0.0 0.00 0.00 0.00 61 1013.7
20260503012548 6 227 0.0 0.0 0.00 0.00 0.00 59 1013.7
20260503012044 6 234 0.0 0.0 0.00 0.00 0.00 56 1013.5
20260503011541 6 253 1.6 3.2 0.00 0.00 0.00 56 1013.5
20260503011038 7 217 0.0 1.6 0.00 0.00 0.00 55 1013.7
20260503010534 7 219 1.6 3.2 0.00 0.00 0.00 54 1013.6
20260503010032 7 264 0.0 3.2 0.00 0.00 0.00 54 1013.4
20260503005529 7 210 0.0 6.4 0.00 0.00 0.00 56 1013.4
20260503005026 7 204 0.0 1.6 0.00 0.00 0.00 55 1013.5
20260503004522 7 212 0.0 1.6 0.00 0.00 0.00 55 1013.5
20260503004020 7 227 0.0 3.2 0.00 0.00 0.00 53 1013.4
20260503003511 7 192 1.6 1.6 0.00 0.00 0.00 54 1013.4
20260503003009 7 181 3.2 3.2 0.00 0.00 0.00 54 1013.3
20260503002506 7 242 0.0 3.2 0.00 0.00 0.00 53 1013.3
20260503002002 7 173 0.0 3.2 0.00 0.00 0.00 54 1013.2
20260503001458 8 243 0.0 1.6 0.00 0.00 0.00 52 1013.2
20260503000956 8 225 0.0 1.6 0.00 0.00 0.00 51 1013.2
20260503000453 8 263 0.0 3.2 0.00 0.00 0.00 51 1013.0
20260502235950 8 222 0.0 4.8 0.00 0.00 0.00 50 1013.2
20260502235447 8 217 0.0 3.2 0.00 0.00 0.00 50 1012.9
20260502234944 8 225 0.0 6.4 0.00 0.00 0.00 48 1013.0
20260502234440 8 283 4.8 9.7 0.00 0.00 0.00 48 1012.8
20260502233938 9 225 3.2 4.8 0.00 0.00 0.00 47 1012.8
20260502233433 10 268 1.6 3.2 0.00 0.00 0.00 46 1012.7
20260502232930 10 226 1.6 12.9 0.00 0.00 0.00 45 1012.7
20260502232427 9 232 0.0 4.8 0.00 0.00 0.00 46 1012.9
20260502231924 10 260 4.8 4.8 0.00 0.00 0.00 45 1012.9
20260502231421 10 227 0.0 4.8 0.00 0.00 0.00 46 1012.8
20260502230919 10 244 1.6 4.8 0.00 0.00 0.00 45 1012.8
20260502230416 10 242 3.2 11.3 0.00 0.00 0.00 45 1012.6
20260502225914 10 237 4.8 9.7 0.00 0.00 0.00 45 1012.7
20260502225404 10 261 3.2 11.3 0.00 0.00 0.00 45 1012.8
20260502224901 10 202 4.8 6.4 0.00 0.00 0.00 47 1012.6
20260502224356 10 267 3.2 4.8 0.00 0.00 0.00 46 1012.6
20260502223854 10 128 1.6 9.7 0.00 0.00 0.00 46 1012.6
20260502223347 10 227 1.6 4.8 0.00 0.00 0.00 46 1012.4
20260502222844 10 68 3.2 6.4 0.00 0.00 0.00 47 1012.3
20260502222342 10 189 3.2 4.8 0.00 0.00 0.00 46 1012.3
20260502221837 10 124 4.8 6.4 0.00 0.00 0.00 45 1012.7
20260502221334 10 175 3.2 4.8 0.00 0.00 0.00 44 1012.3
20260502220831 10 172 1.6 4.8 0.00 0.00 0.00 44 1012.2
20260502220321 10 215 0.0 1.6 0.00 0.00 0.00 43 1012.2
20260502215817 11 239 3.2 4.8 0.00 0.00 0.00 43 1011.9
20260502215314 11 239 1.6 4.8 0.00 0.00 0.00 42 1012.1
20260502214811 12 217 9.7 14.5 0.00 0.00 0.00 41 1012.0
20260502214303 11 351 4.8 6.4 0.00 0.00 0.00 42 1012.1
20260502213800 11 353 6.4 11.3 0.00 0.00 0.00 43 1012.1
20260502213257 12 281 6.4 16.1 0.00 0.00 0.00 42 1012.0
20260502212756 12 181 3.2 11.3 0.00 0.00 0.00 40 1011.7
20260502212254 12 196 0.0 17.7 0.00 0.00 0.00 40 1011.8
20260502211749 11 195 3.2 6.4 0.00 0.00 0.00 41 1011.8
20260502211246 11 236 1.6 3.2 0.00 0.00 0.00 41 1011.8
20260502210743 11 244 3.2 6.4 0.00 0.00 0.00 42 1011.7
20260502210240 11 274 3.2 6.4 0.00 0.00 0.00 43 1011.7
20260502205737 11 264 8.0 11.3 0.00 0.00 0.00 43 1011.8
20260502205233 11 5 1.6 4.8 0.00 0.00 0.00 43 1011.7
20260502204731 12 10 1.6 9.7 0.00 0.00 0.00 42 1011.6
20260502204228 11 231 1.6 4.8 0.00 0.00 0.00 42 1011.7
20260502203726 11 205 4.8 9.7 0.00 0.00 0.00 43 1011.8
20260502203218 11 198 0.0 4.8 0.00 0.00 0.00 42 1011.7
20260502202712 11 112 1.6 3.2 0.00 0.00 0.00 45 1011.7
20260502202210 11 200 3.2 4.8 0.00 0.00 0.00 44 1011.5
20260502201707 11 251 1.6 16.1 0.00 0.00 0.00 43 1011.7
20260502201158 11 257 1.6 4.8 0.00 0.00 0.00 42 1011.8
20260502200654 12 221 0.0 4.8 0.00 0.00 0.00 42 1011.8
20260502200151 12 5 9.7 24.1 0.00 0.00 0.00 40 1011.8
20260502195649 12 226 1.6 6.4 0.00 0.00 0.00 42 1011.5
20260502195145 12 209 1.6 6.4 0.00 0.00 0.00 41 1011.8
20260502194642 12 258 0.0 6.4 0.00 0.00 0.00 41 1011.6
20260502194138 13 2 1.6 6.4 0.00 0.00 0.00 41 1011.8
20260502193635 13 268 6.4 11.3 0.00 0.00 0.00 38 1011.8
20260502193132 12 224 1.6 4.8 0.00 0.00 0.00 40 1011.5
20260502192627 12 282 6.4 6.4 0.00 0.00 0.00 38 1011.6
20260502192125 12 331 1.6 12.9 0.00 0.00 0.00 40 1011.6
20260502191622 13 312 6.4 11.3 0.00 0.00 0.00 37 1011.6
20260502191120 12 156 1.6 4.8 0.00 0.00 0.00 38 1011.5
20260502190617 12 275 4.8 17.7 0.00 0.00 0.00 39 1011.5
20260502190114 12 290 4.8 12.9 0.00 0.00 0.00 40 1011.5
20260502185609 12 134 6.4 6.4 0.00 0.00 0.00 39 1011.3
20260502185106 12 264 1.6 11.3 0.00 0.00 0.00 37 1011.6
20260502184602 13 89 4.8 9.7 0.00 0.00 0.00 37 1011.5
20260502184058 13 104 4.8 14.5 0.00 0.00 0.00 35 1011.5
20260502183554 14 226 1.6 16.1 0.00 0.00 0.00 35 1011.5
20260502183050 15 249 3.2 4.8 0.00 0.00 0.00 37 1011.5
20260502182545 15 194 6.4 9.7 0.00 0.00 0.00 35 1011.5
20260502182041 13 240 1.6 4.8 0.00 0.00 0.00 36 1011.7
20260502181534 14 73 6.4 14.5 0.00 0.00 0.00 36 1011.7
20260502181032 15 269 1.6 4.8 0.00 0.00 0.00 37 1011.5
20260502180528 13 231 0.0 3.2 0.00 0.00 0.00 37 1011.8
20260502170448 12 133 1.6 3.2 0.00 0.00 0.00 42 1012.2
20260502163931 12 266 6.4 6.4 0.00 0.00 0.00 37 1012.6
20260502163427 11 201 0.0 3.2 0.00 0.00 0.00 40 1012.8
20260502162925 11 266 8.0 12.9 0.00 0.00 0.00 40 1013.0
20260502162422 11 96 0.0 4.8 0.00 0.00 0.00 43 1012.8
20260502161919 11 126 1.6 4.8 0.00 0.00 0.00 43 1012.7
20260502161415 11 203 3.2 4.8 0.00 0.00 0.00 40 1012.8
20260502160913 11 257 3.2 6.4 0.00 0.00 0.00 42 1013.2
20260502160411 11 265 4.8 6.4 0.00 0.00 0.00 42 1013.0
20260502151850 10 198 6.4 9.7 0.00 0.00 0.00 44 1013.5
20260502151346 10 295 0.0 3.2 0.00 0.00 0.00 45 1013.4
20260502150843 9 229 1.6 3.2 0.00 0.00 0.00 47 1013.4
20260502150340 9 250 3.2 9.7 0.00 0.00 0.00 49 1013.4
20260502130728 6 262 1.6 1.6 0.00 0.00 0.00 59 1013.7
20260502130226 6 265 1.6 3.2 0.00 0.00 0.00 58 1013.8
20260502123712 6 252 4.8 6.4 0.00 0.00 0.00 58 1013.5
20260502123208 6 246 1.6 3.2 0.00 0.00 0.00 59 1013.6
20260502122704 6 230 1.6 1.6 0.00 0.00 0.00 58 1013.6
20260502122201 6 170 3.2 3.2 0.00 0.00 0.00 60 1013.5
20260502121700 6 180 0.0 3.2 0.00 0.00 0.00 60 1013.3
20260502121157 6 217 1.6 4.8 0.00 0.00 0.00 59 1013.3
20260502120653 6 199 0.0 1.6 0.00 0.00 0.00 60 1013.5
20260502120150 6 247 0.0 3.2 0.00 0.00 0.00 60 1013.5
20260502115647 6 251 1.6 3.2 0.00 0.00 0.00 59 1013.6
20260502115138 6 161 1.6 3.2 0.00 0.00 0.00 59 1013.6
20260502114634 6 217 0.0 0.0 0.00 0.00 0.00 59 1013.6
20260502114132 6 185 0.0 1.6 0.00 0.00 0.00 57 1013.6
20260502113629 6 193 1.6 1.6 0.00 0.00 0.00 57 1013.6
20260502113127 6 172 1.6 1.6 0.00 0.00 0.00 57 1013.4
20260502112625 6 238 0.0 1.6 0.00 0.00 0.00 57 1013.4
20260502112122 6 232 0.0 1.6 0.00 0.00 0.00 58 1013.3
20260502111619 6 193 0.0 1.6 0.00 0.00 0.00 59 1013.3
20260502111116 6 186 1.6 4.8 0.00 0.00 0.00 57 1012.9
20260502110614 6 192 1.6 1.6 0.00 0.00 0.00 57 1012.9
20260502110111 6 186 0.0 0.0 0.00 0.00 0.00 60 1012.9
20260502105609 6 185 0.0 3.2 0.00 0.00 0.00 59 1012.9
20260502105106 6 181 0.0 1.6 0.00 0.00 0.00 60 1012.8
20260502104603 6 176 3.2 3.2 0.00 0.00 0.00 59 1012.9
20260502104100 6 195 1.6 3.2 0.00 0.00 0.00 63 1012.8
20260502103558 6 196 0.0 0.0 0.00 0.00 0.00 63 1012.7
20260502103056 6 196 0.0 0.0 0.00 0.00 0.00 62 1013.1
20260502102552 6 155 3.2 3.2 0.00 0.00 0.00 62 1013.0
20260502102049 6 197 0.0 1.6 0.00 0.00 0.00 64 1012.9
20260502101547 6 195 0.0 3.2 0.00 0.00 0.00 65 1013.0
20260502101045 6 189 0.0 0.0 0.00 0.00 0.00 65 1013.1
20260502100543 6 184 0.0 3.2 0.00 0.00 0.00 65 1013.2
20260502091518 7 236 0.0 0.0 0.00 0.00 0.00 64 1013.4
20260502091015 7 206 0.0 0.0 0.00 0.00 0.00 67 1013.5
20260502090512 7 206 0.0 0.0 0.00 0.00 0.00 67 1013.6
20260502071406 8 108 1.6 1.6 0.00 0.00 0.00 71 1012.6
20260502070904 8 56 0.0 4.8 0.00 0.00 0.00 71 1012.6
20260502070402 8 129 0.0 1.6 0.00 0.00 0.00 71 1012.8
20260502065900 8 165 0.0 0.0 0.00 0.00 0.00 71 1012.8
20260502065358 8 42 1.6 3.2 0.00 0.00 0.00 70 1012.8
20260502064856 8 256 0.0 3.2 0.00 0.00 0.00 70 1012.8
20260502064354 8 239 0.0 0.0 0.00 0.00 0.00 69 1012.8
20260502063850 8 265 3.2 4.8 0.00 0.00 0.00 69 1012.9
20260502063348 8 258 0.0 3.2 0.00 0.00 0.00 69 1012.9
20260502062845 9 251 0.0 1.6 0.00 0.00 0.00 69 1013.1
20260502062342 9 275 0.0 1.6 0.00 0.00 0.00 68 1013.2
20260502061842 9 250 0.0 1.6 0.00 0.00 0.00 68 1013.0
20260502061339 9 245 0.0 1.6 0.00 0.00 0.00 68 1013.1
20260502060834 9 249 0.0 1.6 0.00 0.00 0.00 68 1013.1
20260502060329 9 226 0.0 0.0 0.00 0.00 0.00 68 1013.3
20260502055827 9 225 0.0 1.6 0.00 0.00 0.00 68 1013.4
20260502055325 9 251 1.6 1.6 0.00 0.00 0.00 68 1013.4
20260502054825 9 232 0.0 0.0 0.00 0.00 0.00 68 1013.2
20260502054323 9 269 1.6 1.6 0.00 0.00 0.00 69 1013.3
20260502053820 10 245 0.0 4.8 0.00 0.00 0.00 68 1013.4
20260502053317 10 220 0.0 1.6 0.00 0.00 0.00 68 1013.2
20260502052815 10 259 0.0 3.2 0.00 0.00 0.00 68 1013.3
20260502052312 10 228 0.0 3.2 0.00 0.00 0.00 67 1013.2
20260502051810 10 212 1.6 1.6 0.00 0.00 0.00 67 1012.9
20260502051309 10 253 0.0 1.6 0.00 0.00 0.00 67 1013.2
20260502050804 10 257 1.6 4.8 0.00 0.00 0.00 66 1013.1
20260502050301 10 315 1.6 3.2 0.00 0.00 0.00 66 1013.2
20260502045758 10 288 1.6 4.8 0.00 0.00 0.00 66 1013.0
20260502045255 10 255 3.2 3.2 0.00 0.00 0.00 66 1013.1
20260502044752 10 245 0.0 1.6 0.00 0.00 0.00 66 1013.0
20260502044248 10 261 3.2 3.2 0.00 0.00 0.00 66 1013.1
20260502043745 10 19 1.6 4.8 0.00 0.00 0.00 67 1013.0
20260502043243 10 213 0.0 0.0 0.00 0.00 0.00 67 1013.1
20260502042742 10 211 1.6 3.2 0.00 0.00 0.00 66 1013.1
20260502042240 10 159 1.6 1.6 0.00 0.00 0.00 66 1013.1
20260502041737 10 182 1.6 3.2 0.00 0.00 0.00 66 1013.1
20260502041234 10 171 1.6 1.6 0.00 0.00 0.00 66 1013.0
20260502040731 10 235 0.0 9.7 0.00 0.00 0.00 66 1013.0
20260502040228 10 316 0.0 3.2 0.00 0.00 0.00 66 1013.1
20260502035724 10 53 1.6 3.2 0.00 0.00 0.00 66 1013.2
20260502035221 10 187 1.6 1.6 0.00 0.00 0.00 67 1013.1
20260502034718 10 301 1.6 4.8 0.00 0.00 0.00 68 1013.0
20260502034217 10 207 0.0 0.0 0.00 0.00 0.00 68 1013.0
20260502033714 10 208 3.2 4.8 0.00 0.00 0.00 68 1013.0
20260502033212 10 160 0.0 1.6 0.00 0.00 0.00 69 1013.0